| time (UTC) | temp F | wind direction | speed MPH | gust MPH | rain 1hr in | rain 24hr in | rain mn in | humidity % | barometer mb |
| 20260506211036 | 49 | 336 | 0.0 | 4.0 | 0.00 | 0.96 | 0.60 | 82 | 1009.7 |
| 20260506210627 | 49 | 336 | 0.0 | 3.0 | 0.00 | 0.96 | 0.60 | 83 | 1009.7 |
| 20260506210023 | 49 | 336 | 0.0 | 0.0 | 0.00 | 0.96 | 0.60 | 83 | 1009.7 |
| 20260506205544 | 49 | 336 | 0.0 | 0.0 | 0.00 | 0.96 | 0.60 | 83 | 1009.6 |
| 20260506205022 | 49 | 338 | 0.0 | 5.0 | 0.00 | 0.96 | 0.60 | 83 | 1009.5 |
| 20260506204049 | 49 | 308 | 0.0 | 0.0 | 0.00 | 0.96 | 0.60 | 84 | 1009.5 |
| 20260506203641 | 49 | 273 | 0.0 | 2.0 | 0.00 | 0.96 | 0.60 | 84 | 1009.7 |
| 20260506203027 | 48 | 273 | 0.0 | 5.0 | 0.00 | 0.96 | 0.60 | 83 | 1009.8 |
| 20260506202538 | 48 | 274 | 2.0 | 5.0 | 0.00 | 0.96 | 0.60 | 84 | 1009.8 |
| 20260506202035 | 48 | 277 | 0.0 | 5.0 | 0.00 | 0.96 | 0.60 | 85 | 1009.7 |
| 20260506201557 | 48 | 280 | 1.0 | 5.0 | 0.00 | 0.96 | 0.60 | 85 | 1009.7 |
| 20260506201032 | 48 | 296 | 0.0 | 5.0 | 0.00 | 0.96 | 0.60 | 86 | 1009.7 |
| 20260506200637 | 48 | 309 | 2.0 | 5.0 | 0.00 | 0.96 | 0.60 | 86 | 1009.8 |
| 20260506200053 | 48 | 360 | 1.0 | 5.0 | 0.00 | 0.96 | 0.60 | 86 | 1009.7 |
| 20260506195612 | 48 | 343 | 2.0 | 6.0 | 0.00 | 0.96 | 0.60 | 87 | 1009.7 |
| 20260506195036 | 48 | 355 | 4.0 | 6.0 | 0.00 | 0.96 | 0.60 | 87 | 1009.6 |
| 20260506194549 | 48 | 340 | 1.0 | 4.0 | 0.00 | 0.96 | 0.60 | 88 | 1009.4 |
| 20260506194046 | 47 | 350 | 2.0 | 4.0 | 0.00 | 0.96 | 0.60 | 88 | 1009.5 |
| 20260506193616 | 47 | 12 | 1.0 | 4.0 | 0.00 | 0.96 | 0.60 | 89 | 1009.5 |
| 20260506193030 | 47 | 355 | 1.0 | 6.0 | 0.00 | 0.96 | 0.60 | 88 | 1009.5 |
| 20260506192056 | 47 | 337 | 0.0 | 6.0 | 0.00 | 0.96 | 0.60 | 89 | 1009.7 |
| 20260506191529 | 46 | 332 | 3.0 | 6.0 | 0.00 | 0.96 | 0.60 | 89 | 1009.7 |
| 20260506191037 | 46 | 343 | 5.0 | 6.0 | 0.00 | 0.96 | 0.60 | 89 | 1009.7 |
| 20260506190612 | 46 | 345 | 4.0 | 6.0 | 0.00 | 0.96 | 0.60 | 90 | 1009.7 |
| 20260506190224 | 46 | 11 | 3.0 | 6.0 | 0.00 | 0.96 | 0.60 | 90 | 1009.7 |
| 20260506185603 | 46 | 334 | 3.0 | 8.0 | 0.00 | 0.96 | 0.60 | 90 | 1009.7 |
| 20260506185053 | 46 | 323 | 4.0 | 8.0 | 0.00 | 0.96 | 0.60 | 90 | 1009.6 |
| 20260506184525 | 46 | 323 | 5.0 | 10.0 | 0.00 | 0.96 | 0.60 | 91 | 1009.6 |
| 20260506184042 | 46 | 19 | 5.0 | 10.0 | 0.00 | 0.96 | 0.60 | 91 | 1009.5 |
| 20260506183556 | 46 | 355 | 6.0 | 9.0 | 0.00 | 0.96 | 0.60 | 91 | 1009.6 |
| 20260506183022 | 46 | 336 | 6.0 | 10.0 | 0.00 | 0.96 | 0.60 | 91 | 1009.6 |
| 20260506182639 | 46 | 332 | 6.0 | 10.0 | 0.00 | 0.96 | 0.60 | 91 | 1009.6 |
| 20260506182019 | 46 | 332 | 6.0 | 10.0 | 0.00 | 0.96 | 0.60 | 91 | 1009.6 |
| 20260506181540 | 46 | 355 | 7.0 | 10.0 | 0.00 | 0.96 | 0.60 | 91 | 1009.6 |
| 20260506181040 | 46 | 330 | 5.0 | 8.0 | 0.00 | 0.96 | 0.60 | 92 | 1009.6 |
| 20260506180558 | 46 | 339 | 5.0 | 9.0 | 0.00 | 0.96 | 0.60 | 91 | 1009.7 |
| 20260506180122 | 46 | 341 | 5.0 | 9.0 | 0.00 | 0.96 | 0.60 | 92 | 1009.8 |
| 20260506175532 | 46 | 332 | 4.0 | 8.0 | 0.00 | 0.96 | 0.60 | 92 | 1009.6 |
| 20260506175034 | 46 | 336 | 4.0 | 8.0 | 0.00 | 0.96 | 0.60 | 92 | 1009.4 |
| 20260506174539 | 46 | 325 | 3.0 | 7.0 | 0.00 | 0.96 | 0.60 | 92 | 1009.3 |
| 20260506174045 | 46 | 329 | 3.0 | 9.0 | 0.00 | 0.96 | 0.60 | 92 | 1009.1 |
| 20260506173614 | 46 | 347 | 6.0 | 9.0 | 0.00 | 0.96 | 0.60 | 92 | 1009.1 |
| 20260506173044 | 46 | 319 | 4.0 | 8.0 | 0.00 | 0.96 | 0.60 | 92 | 1009.0 |
| 20260506172527 | 46 | 337 | 3.0 | 8.0 | 0.00 | 0.96 | 0.60 | 93 | 1008.9 |
| 20260506172047 | 46 | 346 | 5.0 | 9.0 | 0.00 | 0.96 | 0.60 | 93 | 1008.8 |
| 20260506171536 | 46 | 355 | 4.0 | 7.0 | 0.00 | 0.96 | 0.60 | 93 | 1008.7 |
| 20260506171039 | 45 | 324 | 4.0 | 8.0 | 0.00 | 0.96 | 0.60 | 93 | 1008.8 |
| 20260506170605 | 45 | 346 | 4.0 | 8.0 | 0.00 | 0.96 | 0.60 | 93 | 1008.8 |
| 20260506170033 | 45 | 331 | 4.0 | 8.0 | 0.00 | 0.96 | 0.60 | 93 | 1008.9 |
| 20260506165548 | 45 | 333 | 4.0 | 7.0 | 0.00 | 0.96 | 0.60 | 93 | 1008.8 |
| 20260506165029 | 45 | 334 | 4.0 | 8.0 | 0.00 | 0.96 | 0.60 | 94 | 1008.9 |
| 20260506164538 | 45 | 346 | 5.0 | 9.0 | 0.00 | 0.96 | 0.60 | 94 | 1008.8 |
| 20260506164139 | 45 | 355 | 5.0 | 9.0 | 0.00 | 0.96 | 0.60 | 94 | 1008.7 |
| 20260506163548 | 45 | 360 | 5.0 | 8.0 | 0.00 | 0.96 | 0.60 | 94 | 1008.6 |
| 20260506163024 | 45 | 355 | 4.0 | 8.0 | 0.00 | 0.96 | 0.60 | 94 | 1008.6 |
| 20260506162544 | 45 | 355 | 4.0 | 7.0 | 0.00 | 0.96 | 0.60 | 94 | 1008.6 |
| 20260506162047 | 45 | 5 | 4.0 | 8.0 | 0.00 | 0.96 | 0.60 | 94 | 1008.6 |
| 20260506161544 | 45 | 350 | 6.0 | 8.0 | 0.00 | 0.96 | 0.60 | 94 | 1008.6 |
| 20260506161026 | 45 | 327 | 6.0 | 9.0 | 0.00 | 0.96 | 0.60 | 94 | 1008.8 |
| 20260506160612 | 45 | 355 | 7.0 | 9.0 | 0.00 | 0.96 | 0.60 | 94 | 1008.7 |
| 20260506160120 | 45 | 345 | 5.0 | 7.0 | 0.00 | 0.96 | 0.60 | 94 | 1008.8 |
| 20260506155544 | 45 | 20 | 5.0 | 8.0 | 0.00 | 0.96 | 0.60 | 94 | 1008.8 |
| 20260506154607 | 45 | 13 | 5.0 | 8.0 | 0.00 | 0.96 | 0.60 | 94 | 1008.7 |
| 20260506154054 | 45 | 355 | 5.0 | 7.0 | 0.00 | 0.96 | 0.60 | 94 | 1008.7 |
| 20260506153534 | 45 | 347 | 5.0 | 7.0 | 0.00 | 0.96 | 0.60 | 94 | 1008.7 |
| 20260506153033 | 45 | 329 | 5.0 | 7.0 | 0.01 | 0.96 | 0.60 | 95 | 1008.7 |
| 20260506152545 | 45 | 33 | 4.0 | 7.0 | 0.01 | 0.96 | 0.60 | 95 | 1008.6 |
| 20260506152149 | 45 | 26 | 4.0 | 6.0 | 0.01 | 0.96 | 0.60 | 95 | 1008.8 |
| 20260506151021 | 45 | 23 | 5.0 | 8.0 | 0.01 | 0.96 | 0.60 | 95 | 1008.7 |
| 20260506150529 | 45 | 344 | 6.0 | 8.0 | 0.01 | 0.96 | 0.60 | 94 | 1008.7 |
| 20260506150029 | 45 | 15 | 5.0 | 7.0 | 0.01 | 0.96 | 0.60 | 95 | 1008.6 |
| 20260506145535 | 45 | 346 | 5.0 | 8.0 | 0.01 | 0.96 | 0.60 | 95 | 1008.7 |
| 20260506145031 | 45 | 351 | 5.0 | 8.0 | 0.02 | 0.96 | 0.60 | 95 | 1008.5 |
| 20260506144540 | 45 | 339 | 3.0 | 6.0 | 0.02 | 0.96 | 0.60 | 95 | 1008.4 |
| 20260506144052 | 45 | 24 | 4.0 | 6.0 | 0.02 | 0.96 | 0.60 | 95 | 1008.3 |
| 20260506142520 | 45 | 11 | 4.0 | 6.0 | 0.01 | 0.95 | 0.59 | 95 | 1008.2 |
| 20260506142028 | 45 | 360 | 4.0 | 6.0 | 0.01 | 0.95 | 0.59 | 95 | 1008.2 |
| 20260506141531 | 45 | 29 | 2.0 | 5.0 | 0.01 | 0.95 | 0.59 | 95 | 1008.2 |
| 20260506141043 | 45 | 19 | 4.0 | 5.0 | 0.01 | 0.95 | 0.59 | 95 | 1008.3 |
| 20260506140533 | 45 | 24 | 3.0 | 5.0 | 0.01 | 0.95 | 0.59 | 95 | 1008.3 |
| 20260506140026 | 45 | 13 | 3.0 | 5.0 | 0.01 | 0.95 | 0.59 | 95 | 1008.4 |
| 20260506135558 | 44 | 17 | 3.0 | 5.0 | 0.01 | 0.95 | 0.59 | 95 | 1008.4 |
| 20260506135049 | 44 | 5 | 3.0 | 5.0 | 0.00 | 0.94 | 0.58 | 95 | 1008.4 |
| 20260506134539 | 44 | 18 | 2.0 | 4.0 | 0.00 | 0.94 | 0.58 | 95 | 1008.3 |
| 20260506134027 | 44 | 355 | 2.0 | 4.0 | 0.00 | 0.94 | 0.58 | 95 | 1008.3 |
| 20260506133534 | 44 | 5 | 1.0 | 4.0 | 0.00 | 0.94 | 0.58 | 95 | 1008.3 |
| 20260506133047 | 44 | 338 | 1.0 | 4.0 | 0.00 | 0.94 | 0.58 | 94 | 1008.3 |
| 20260506132533 | 44 | 27 | 2.0 | 4.0 | 0.00 | 0.94 | 0.58 | 94 | 1008.1 |
| 20260506132056 | 44 | 25 | 0.0 | 5.0 | 0.01 | 0.94 | 0.58 | 94 | 1008.1 |
| 20260506131530 | 44 | 28 | 1.0 | 5.0 | 0.01 | 0.94 | 0.58 | 94 | 1008.1 |
| 20260506131029 | 44 | 42 | 3.0 | 5.0 | 0.01 | 0.94 | 0.58 | 94 | 1008.0 |
| 20260506130543 | 44 | 20 | 0.0 | 0.0 | 0.01 | 0.94 | 0.58 | 95 | 1008.2 |
| 20260506130100 | 44 | 27 | 0.0 | 0.0 | 0.02 | 0.94 | 0.58 | 95 | 1008.3 |
| 20260506125027 | 44 | 351 | 1.0 | 3.0 | 0.02 | 0.94 | 0.58 | 94 | 1008.3 |
| 20260506124553 | 44 | 19 | 0.0 | 3.0 | 0.02 | 0.94 | 0.58 | 95 | 1008.4 |
| 20260506124059 | 44 | 10 | 1.0 | 3.0 | 0.02 | 0.94 | 0.58 | 95 | 1008.4 |
| 20260506123539 | 44 | 9 | 0.0 | 3.0 | 0.02 | 0.94 | 0.58 | 95 | 1008.3 |
| 20260506122529 | 44 | 350 | 3.0 | 5.0 | 0.02 | 0.94 | 0.58 | 95 | 1008.3 |
| 20260506122052 | 44 | 9 | 1.0 | 4.0 | 0.01 | 0.93 | 0.57 | 95 | 1008.3 |
| 20260506121527 | 44 | 30 | 1.0 | 5.0 | 0.01 | 0.93 | 0.57 | 95 | 1008.3 |
| 20260506121046 | 44 | 24 | 4.0 | 6.0 | 0.02 | 0.93 | 0.57 | 95 | 1008.3 |
| 20260506120525 | 44 | 22 | 5.0 | 8.0 | 0.02 | 0.93 | 0.57 | 94 | 1008.5 |
| 20260506120038 | 44 | 42 | 4.0 | 7.0 | 0.01 | 0.92 | 0.56 | 94 | 1008.4 |
| 20260506115549 | 44 | 19 | 3.0 | 7.0 | 0.01 | 0.92 | 0.56 | 95 | 1008.4 |
| 20260506114542 | 44 | 37 | 5.0 | 8.0 | 0.02 | 0.92 | 0.56 | 94 | 1008.2 |
| 20260506114025 | 44 | 32 | 3.0 | 7.0 | 0.02 | 0.92 | 0.56 | 95 | 1008.1 |
| 20260506113553 | 44 | 26 | 5.0 | 9.0 | 0.02 | 0.92 | 0.56 | 94 | 1007.9 |
| 20260506113031 | 44 | 94 | 3.0 | 7.0 | 0.03 | 0.92 | 0.56 | 95 | 1008.0 |
| 20260506112540 | 44 | 61 | 4.0 | 7.0 | 0.03 | 0.92 | 0.56 | 95 | 1007.9 |
| 20260506112029 | 44 | 89 | 3.0 | 5.0 | 0.04 | 0.92 | 0.56 | 95 | 1007.8 |
| 20260506111530 | 44 | 42 | 3.0 | 6.0 | 0.04 | 0.92 | 0.56 | 95 | 1008.1 |
| 20260506111024 | 44 | 14 | 3.0 | 8.0 | 0.04 | 0.91 | 0.55 | 95 | 1008.1 |
| 20260506110537 | 44 | 15 | 4.0 | 8.0 | 0.05 | 0.91 | 0.55 | 95 | 1007.9 |
| 20260506110057 | 44 | 5 | 4.0 | 6.0 | 0.05 | 0.91 | 0.55 | 95 | 1008.0 |
| 20260506105548 | 44 | 38 | 4.0 | 7.0 | 0.05 | 0.91 | 0.55 | 94 | 1008.3 |
| 20260506105044 | 44 | 34 | 4.0 | 7.0 | 0.05 | 0.90 | 0.54 | 95 | 1008.2 |
| 20260506104610 | 44 | 19 | 3.0 | 7.0 | 0.06 | 0.90 | 0.54 | 95 | 1008.1 |
| 20260506104030 | 44 | 15 | 4.0 | 7.0 | 0.06 | 0.90 | 0.54 | 95 | 1008.2 |
| 20260506103522 | 44 | 51 | 5.0 | 10.0 | 0.07 | 0.90 | 0.54 | 95 | 1008.3 |
| 20260506103039 | 45 | 12 | 5.0 | 10.0 | 0.07 | 0.89 | 0.53 | 95 | 1008.5 |
| 20260506102535 | 45 | 355 | 5.0 | 7.0 | 0.06 | 0.88 | 0.52 | 95 | 1008.6 |
| 20260506102045 | 45 | 42 | 5.0 | 7.0 | 0.06 | 0.88 | 0.52 | 95 | 1008.5 |
| 20260506101546 | 45 | 28 | 4.0 | 5.0 | 0.06 | 0.88 | 0.52 | 95 | 1008.3 |
| 20260506101052 | 45 | 355 | 3.0 | 6.0 | 0.05 | 0.87 | 0.51 | 95 | 1008.5 |
| 20260506100527 | 45 | 17 | 5.0 | 7.0 | 0.05 | 0.86 | 0.50 | 95 | 1008.2 |
| 20260506100038 | 45 | 9 | 5.0 | 7.0 | 0.05 | 0.86 | 0.50 | 94 | 1008.1 |
| 20260506095534 | 45 | 342 | 3.0 | 5.0 | 0.05 | 0.85 | 0.49 | 94 | 1008.3 |
| 20260506095024 | 45 | 348 | 3.0 | 6.0 | 0.04 | 0.84 | 0.48 | 94 | 1008.1 |
| 20260506094605 | 45 | 39 | 4.0 | 6.0 | 0.05 | 0.84 | 0.48 | 94 | 1008.1 |
| 20260506094027 | 45 | 30 | 3.0 | 6.0 | 0.05 | 0.84 | 0.48 | 94 | 1008.0 |
| 20260506093522 | 45 | 23 | 4.0 | 6.0 | 0.05 | 0.83 | 0.47 | 94 | 1008.1 |
| 20260506093022 | 45 | 360 | 4.0 | 5.0 | 0.04 | 0.82 | 0.46 | 94 | 1008.2 |
| 20260506092533 | 45 | 25 | 3.0 | 6.0 | 0.04 | 0.82 | 0.46 | 94 | 1007.8 |
| 20260506092028 | 45 | 341 | 4.0 | 6.0 | 0.05 | 0.82 | 0.46 | 94 | 1007.8 |
| 20260506091523 | 45 | 40 | 1.0 | 8.0 | 0.06 | 0.82 | 0.46 | 94 | 1007.7 |
| 20260506091037 | 45 | 5 | 5.0 | 8.0 | 0.06 | 0.82 | 0.46 | 94 | 1007.6 |
| 20260506090535 | 45 | 30 | 3.0 | 8.0 | 0.07 | 0.81 | 0.45 | 94 | 1007.9 |
| 20260506090052 | 45 | 50 | 6.0 | 8.0 | 0.07 | 0.81 | 0.45 | 95 | 1007.8 |
| 20260506085602 | 45 | 344 | 5.0 | 9.0 | 0.07 | 0.80 | 0.44 | 94 | 1008.2 |
| 20260506085029 | 45 | 350 | 4.0 | 10.0 | 0.08 | 0.80 | 0.44 | 94 | 1008.3 |
| 20260506084523 | 45 | 19 | 5.0 | 10.0 | 0.08 | 0.79 | 0.43 | 94 | 1008.0 |
| 20260506084033 | 45 | 83 | 4.0 | 11.0 | 0.07 | 0.78 | 0.42 | 94 | 1008.0 |
| 20260506083519 | 45 | 28 | 6.0 | 11.0 | 0.08 | 0.78 | 0.42 | 94 | 1008.0 |
| 20260506083037 | 46 | 48 | 6.0 | 11.0 | 0.09 | 0.78 | 0.42 | 94 | 1008.3 |
| 20260506082528 | 46 | 25 | 5.0 | 9.0 | 0.09 | 0.78 | 0.42 | 94 | 1008.3 |
| 20260506082048 | 46 | 19 | 5.0 | 9.0 | 0.09 | 0.77 | 0.41 | 94 | 1008.5 |
| 20260506081539 | 46 | 33 | 3.0 | 7.0 | 0.09 | 0.76 | 0.40 | 94 | 1008.6 |
| 20260506081035 | 46 | 26 | 4.0 | 7.0 | 0.10 | 0.76 | 0.40 | 94 | 1008.7 |
| 20260506080524 | 46 | 28 | 4.0 | 7.0 | 0.08 | 0.74 | 0.38 | 94 | 1008.6 |
| 20260506073023 | 46 | 26 | 6.0 | 12.0 | 0.12 | 0.69 | 0.33 | 94 | 1008.4 |
| 20260506072518 | 46 | 30 | 6.0 | 13.0 | 0.12 | 0.68 | 0.32 | 94 | 1008.3 |
| 20260506072018 | 47 | 16 | 6.0 | 11.0 | 0.13 | 0.68 | 0.32 | 94 | 1008.3 |
| 20260506071525 | 47 | 23 | 7.0 | 11.0 | 0.13 | 0.67 | 0.31 | 94 | 1008.2 |
| 20260506071107 | 47 | 25 | 7.0 | 10.0 | 0.12 | 0.66 | 0.30 | 94 | 1008.2 |
| 20260506070531 | 47 | 30 | 5.0 | 10.0 | 0.13 | 0.66 | 0.30 | 94 | 1008.3 |
| 20260506062027 | 48 | 30 | 4.0 | 8.0 | 0.06 | 0.55 | 0.19 | 94 | 1008.2 |
| 20260506061521 | 48 | 13 | 4.0 | 6.0 | 0.05 | 0.54 | 0.18 | 94 | 1008.2 |
| 20260506061031 | 48 | 42 | 4.0 | 6.0 | 0.05 | 0.53 | 0.17 | 94 | 1008.3 |
| 20260506060529 | 48 | 22 | 0.0 | 4.0 | 0.06 | 0.53 | 0.17 | 94 | 1008.4 |
| 20260506051048 | 48 | 88 | 3.0 | 5.0 | 0.10 | 0.48 | 0.12 | 94 | 1009.1 |
| 20260506050537 | 48 | 123 | 3.0 | 7.0 | 0.09 | 0.47 | 0.11 | 94 | 1009.4 |
| 20260506045018 | 48 | 122 | 1.0 | 3.0 | 0.10 | 0.44 | 0.08 | 94 | 1009.3 |
| 20260506044531 | 48 | 122 | 1.0 | 7.0 | 0.12 | 0.44 | 0.08 | 93 | 1009.2 |
| 20260506044026 | 48 | 124 | 3.0 | 7.0 | 0.13 | 0.43 | 0.07 | 93 | 1009.4 |
| 20260506043552 | 48 | 131 | 2.0 | 7.0 | 0.13 | 0.42 | 0.06 | 93 | 1009.3 |
| 20260506043037 | 48 | 134 | 3.0 | 7.0 | 0.12 | 0.40 | 0.04 | 93 | 1009.2 |
| 20260506042540 | 48 | 132 | 2.0 | 5.0 | 0.12 | 0.40 | 0.04 | 93 | 1009.3 |
| 20260506042042 | 48 | 88 | 2.0 | 6.0 | 0.11 | 0.39 | 0.03 | 93 | 1009.1 |
| 20260506041611 | 48 | 130 | 3.0 | 6.0 | 0.10 | 0.38 | 0.02 | 93 | 1009.1 |
| 20260506041040 | 48 | 60 | 2.0 | 3.0 | 0.10 | 0.38 | 0.02 | 93 | 1009.0 |
| 20260506040536 | 48 | 68 | 0.0 | 0.0 | 0.09 | 0.37 | 0.01 | 93 | 1009.1 |
| 20260506040028 | 48 | 68 | 0.0 | 1.0 | 0.08 | 0.36 | 0.00 | 93 | 1009.3 |
| 20260506035521 | 48 | 69 | 0.0 | 2.0 | 0.08 | 0.36 | 0.36 | 93 | 1009.4 |
| 20260506035032 | 48 | 16 | 0.0 | 2.0 | 0.06 | 0.33 | 0.33 | 93 | 1009.5 |
| 20260506034549 | 48 | 13 | 0.0 | 2.0 | 0.06 | 0.32 | 0.32 | 93 | 1009.5 |
| 20260506034035 | 48 | 13 | 0.0 | 4.0 | 0.04 | 0.30 | 0.30 | 93 | 1009.9 |
| 20260506033541 | 48 | 355 | 2.0 | 3.0 | 0.03 | 0.29 | 0.29 | 93 | 1009.3 |
| 20260506033034 | 48 | 20 | 1.0 | 4.0 | 0.03 | 0.28 | 0.28 | 93 | 1009.6 |
| 20260506032526 | 48 | 16 | 1.0 | 4.0 | 0.04 | 0.28 | 0.28 | 93 | 1009.6 |
| 20260506032033 | 48 | 80 | 0.0 | 2.0 | 0.05 | 0.28 | 0.28 | 93 | 1009.6 |
| 20260506031534 | 48 | 80 | 0.0 | 2.0 | 0.06 | 0.28 | 0.28 | 93 | 1009.4 |
| 20260506031024 | 48 | 80 | 0.0 | 2.0 | 0.07 | 0.28 | 0.28 | 92 | 1009.5 |
| 20260506030532 | 48 | 80 | 0.0 | 4.0 | 0.07 | 0.28 | 0.28 | 92 | 1009.4 |
| 20260506030047 | 48 | 80 | 2.0 | 4.0 | 0.08 | 0.28 | 0.28 | 92 | 1009.4 |
| 20260506025536 | 48 | 78 | 0.0 | 3.0 | 0.08 | 0.28 | 0.28 | 92 | 1009.4 |
| 20260506025031 | 48 | 118 | 2.0 | 4.0 | 0.07 | 0.27 | 0.27 | 92 | 1009.6 |
| 20260506024559 | 48 | 118 | 1.0 | 4.0 | 0.07 | 0.26 | 0.26 | 92 | 1009.8 |
| 20260506024020 | 48 | 125 | 1.0 | 4.0 | 0.07 | 0.26 | 0.26 | 92 | 1009.8 |
| 20260506023521 | 48 | 123 | 2.0 | 4.0 | 0.06 | 0.25 | 0.25 | 92 | 1010.0 |
| 20260506023030 | 48 | 81 | 0.0 | 3.0 | 0.06 | 0.25 | 0.25 | 92 | 1010.1 |
| 20260506022520 | 48 | 81 | 0.0 | 3.0 | 0.06 | 0.24 | 0.24 | 92 | 1010.2 |
| 20260506022037 | 48 | 111 | 1.0 | 2.0 | 0.05 | 0.23 | 0.23 | 92 | 1010.1 |
| 20260506021522 | 48 | 111 | 0.0 | 0.0 | 0.05 | 0.22 | 0.22 | 92 | 1010.2 |
| 20260506021032 | 48 | 111 | 0.0 | 0.0 | 0.04 | 0.21 | 0.21 | 92 | 1010.3 |
| 20260506020528 | 48 | 111 | 0.0 | 0.0 | 0.04 | 0.21 | 0.21 | 92 | 1010.1 |
| 20260506020027 | 47 | 111 | 0.0 | 0.0 | 0.03 | 0.20 | 0.20 | 92 | 1010.1 |
| 20260506015556 | 47 | 111 | 0.0 | 0.0 | 0.04 | 0.20 | 0.20 | 91 | 1010.0 |
| 20260506015049 | 47 | 111 | 0.0 | 0.0 | 0.04 | 0.20 | 0.20 | 91 | 1010.0 |
| 20260506014553 | 47 | 111 | 0.0 | 0.0 | 0.03 | 0.19 | 0.19 | 91 | 1010.0 |
| 20260506014051 | 47 | 111 | 0.0 | 0.0 | 0.05 | 0.19 | 0.19 | 91 | 1009.9 |
| 20260506013537 | 47 | 111 | 0.0 | 0.0 | 0.06 | 0.19 | 0.19 | 91 | 1009.9 |
| 20260506013133 | 47 | 111 | 0.0 | 0.0 | 0.07 | 0.19 | 0.19 | 91 | 1010.0 |
| 20260506012544 | 47 | 111 | 0.0 | 0.0 | 0.06 | 0.18 | 0.18 | 91 | 1009.9 |
| 20260506012040 | 47 | 111 | 0.0 | 2.0 | 0.06 | 0.18 | 0.18 | 91 | 1009.8 |
| 20260506011530 | 47 | 111 | 1.0 | 2.0 | 0.06 | 0.17 | 0.17 | 91 | 1009.5 |
| 20260506011042 | 47 | 111 | 0.0 | 4.0 | 0.07 | 0.17 | 0.17 | 91 | 1009.4 |
| 20260506010042 | 47 | 84 | 1.0 | 3.0 | 0.08 | 0.17 | 0.17 | 91 | 1009.4 |
| 20260506005558 | 47 | 13 | 0.0 | 3.0 | 0.07 | 0.16 | 0.16 | 91 | 1009.0 |
| 20260506005043 | 47 | 12 | 0.0 | 3.0 | 0.07 | 0.16 | 0.16 | 91 | 1009.1 |
| 20260506004541 | 47 | 355 | 0.0 | 3.0 | 0.06 | 0.15 | 0.15 | 90 | 1009.0 |
| 20260506004023 | 47 | 341 | 0.0 | 3.0 | 0.05 | 0.14 | 0.14 | 90 | 1008.9 |
| 20260506003613 | 47 | 340 | 0.0 | 3.0 | 0.05 | 0.13 | 0.13 | 90 | 1008.8 |
| 20260506003055 | 47 | 340 | 0.0 | 3.0 | 0.04 | 0.12 | 0.12 | 90 | 1008.9 |
| 20260506002731 | 47 | 340 | 0.0 | 4.0 | 0.05 | 0.12 | 0.12 | 90 | 1008.9 |
| 20260506002105 | 47 | 340 | 3.0 | 5.0 | 0.07 | 0.12 | 0.12 | 90 | 1008.7 |
| 20260506001817 | 47 | 333 | 3.0 | 5.0 | 0.07 | 0.11 | 0.11 | 90 | 1008.8 |
| 20260506001125 | 48 | 336 | 3.0 | 5.0 | 0.09 | 0.10 | 0.10 | 89 | 1008.8 |
| 20260506000535 | 48 | 327 | 2.0 | 4.0 | 0.10 | 0.10 | 0.10 | 89 | 1009.0 |
| 20260506000101 | 48 | 348 | 2.0 | 4.0 | 0.09 | 0.09 | 0.09 | 89 | 1008.9 |
| 20260505235705 | 48 | 326 | 1.0 | 4.0 | 0.09 | 0.09 | 0.09 | 89 | 1008.9 |
| 20260505235121 | 48 | 319 | 1.0 | 4.0 | 0.09 | 0.09 | 0.09 | 88 | 1008.8 |
| 20260505234605 | 48 | 341 | 1.0 | 8.0 | 0.09 | 0.09 | 0.09 | 88 | 1008.6 |
| 20260505234024 | 48 | 344 | 4.0 | 8.0 | 0.09 | 0.09 | 0.09 | 87 | 1008.8 |
| 20260505233533 | 49 | 344 | 3.0 | 6.0 | 0.08 | 0.08 | 0.08 | 87 | 1008.9 |
| 20260505233026 | 49 | 317 | 2.0 | 7.0 | 0.07 | 0.07 | 0.07 | 86 | 1009.1 |
| 20260505232630 | 49 | 328 | 2.0 | 10.0 | 0.07 | 0.07 | 0.07 | 85 | 1009.0 |
| 20260505232118 | 49 | 325 | 4.0 | 11.0 | 0.05 | 0.05 | 0.05 | 84 | 1008.8 |
| 20260505231600 | 50 | 337 | 6.0 | 13.0 | 0.03 | 0.03 | 0.03 | 81 | 1008.6 |
| 20260505231048 | 51 | 283 | 8.0 | 13.0 | 0.00 | 0.00 | 0.00 | 79 | 1008.5 |
| 20260505230524 | 52 | 319 | 6.0 | 17.0 | 0.00 | 0.00 | 0.00 | 77 | 1008.5 |
| 20260505230044 | 52 | 326 | 10.0 | 17.0 | 0.00 | 0.00 | 0.00 | 74 | 1008.3 |
| 20260505225533 | 53 | 292 | 7.0 | 13.0 | 0.00 | 0.00 | 0.00 | 73 | 1008.3 |
| 20260505225044 | 53 | 303 | 5.0 | 12.0 | 0.00 | 0.00 | 0.00 | 73 | 1008.1 |
| 20260505224112 | 54 | 322 | 6.0 | 17.0 | 0.00 | 0.00 | 0.00 | 71 | 1008.2 |
| 20260505223621 | 55 | 291 | 9.0 | 20.0 | 0.00 | 0.00 | 0.00 | 70 | 1007.9 |
| 20260505223024 | 56 | 296 | 8.0 | 20.0 | 0.00 | 0.00 | 0.00 | 68 | 1007.7 |
| 20260505222600 | 57 | 323 | 6.0 | 19.0 | 0.00 | 0.00 | 0.00 | 66 | 1007.8 |
| 20260505221623 | 59 | 321 | 9.0 | 20.0 | 0.00 | 0.00 | 0.00 | 64 | 1007.4 |
| 20260505221254 | 60 | 292 | 7.0 | 14.0 | 0.00 | 0.00 | 0.00 | 63 | 1007.1 |
| 20260505220551 | 62 | 314 | 7.0 | 12.0 | 0.00 | 0.00 | 0.00 | 62 | 1006.9 |
| 20260505220059 | 64 | 288 | 5.0 | 16.0 | 0.00 | 0.00 | 0.00 | 69 | 1006.7 |
| 20260505215542 | 65 | 252 | 6.0 | 24.0 | 0.00 | 0.00 | 0.00 | 68 | 1006.4 |
| 20260505215030 | 65 | 244 | 6.0 | 15.0 | 0.00 | 0.00 | 0.00 | 67 | 1006.2 |
| 20260505214607 | 66 | 274 | 7.0 | 18.0 | 0.00 | 0.00 | 0.00 | 66 | 1006.0 |
| 20260505213557 | 67 | 267 | 10.0 | 23.0 | 0.00 | 0.00 | 0.00 | 63 | 1005.5 |
| 20260505213106 | 67 | 238 | 7.0 | 18.0 | 0.00 | 0.00 | 0.00 | 64 | 1005.3 |
| 20260505212524 | 68 | 252 | 7.0 | 17.0 | 0.00 | 0.00 | 0.00 | 62 | 1005.2 |
| 20260505212158 | 68 | 237 | 5.0 | 15.0 | 0.00 | 0.00 | 0.00 | 63 | 1005.3 |